Change the Weather History Date:

Monday, April 28, 2014

  Actual Average Record
Temperature  
Mean Temperature 68 °F -  
Max Temperature 84 °F 84 °F 100 °F (2007)
Min Temperature 51 °F 58 °F 48 °F (2006)
Cooling Degree Days 2    
Growing Degree Days 18 (Base 50)    
Moisture  
Dew Point 28 °F    
Average Humidity 26    
Maximum Humidity 44    
Minimum Humidity 11    
Precipitation  
Precipitation 0.00 in - - ()
Sea Level Pressure  
Sea Level Pressure 29.91 in    
Wind  
Wind Speed 7 mph (South)    
Max Wind Speed 14 mph    
Max Gust Speed 25 mph    
Visibility 12 miles    
Events      
Averages and records for this station are not official NWS values.
T = Trace of Precipitation, MM = Missing Value Source: NWS Daily Summary

Daily Weather History Graph

Daily Weather History Graph

Search for Another Location

Airport or City:

Trip Planner

Search our weather history database for the weather conditions in past years. The results will help you decide how hot, cold, wet, or windy it might be!

Date:

Astronomy

Apr. 28, 2014 Rise Set
Actual Time 5:41 AM MST 7:07 PM MST
Civil Twilight 5:15 AM MST 7:33 PM MST
Nautical Twilight 4:44 AM MST 8:04 PM MST
Astronomical Twilight 4:11 AM MST 8:37 PM MST
Moon 5:19 AM MST (4/28) 6:50 PM MST (4/28)
Length of Visible Light 14h 17m
Length of Day
13h 25m
Waning Crescent, 0% of the Moon is Illuminated
Apr 28
Waning Crescent
Apr 28
New
May 6
First Quarter
May 14
Full
May 21
Last Quarter

Hourly Weather History & Observations

Time (MST) Temp. Dew Point Humidity Pressure Visibility Wind Dir Wind Speed Gust Speed Precip Events Conditions
12:15 AM 60.8 °F 28.4 °F 29% 29.90 in 10.0 mi ESE 8.1 mph - N/A   Clear
12:35 AM 60.8 °F 28.4 °F 29% 29.90 in 10.0 mi SE 4.6 mph - N/A   Clear
12:55 AM 59.0 °F 26.6 °F 29% 29.90 in 10.0 mi ESE 4.6 mph - N/A   Clear
1:15 AM 57.2 °F 26.6 °F 31% 29.91 in 10.0 mi East 4.6 mph - N/A   Clear
1:35 AM 57.2 °F 28.4 °F 33% 29.91 in 10.0 mi ESE 5.8 mph - N/A   Clear
1:55 AM 57.2 °F 30.2 °F 36% 29.91 in 10.0 mi ESE 8.1 mph - N/A   Clear
2:15 AM 57.2 °F 33.8 °F 41% 29.91 in 10.0 mi ESE 5.8 mph - N/A   Clear
2:35 AM 57.2 °F 32.0 °F 38% 29.90 in 10.0 mi SE 10.4 mph - N/A   Clear
2:55 AM 53.6 °F 32.0 °F 44% 29.90 in 10.0 mi SE 9.2 mph - N/A   Clear
3:15 AM 53.6 °F 32.0 °F 44% 29.91 in 10.0 mi ESE 5.8 mph - N/A   Clear
3:35 AM 53.6 °F 32.0 °F 44% 29.91 in 10.0 mi ESE 5.8 mph - N/A   Clear
3:55 AM 53.6 °F 30.2 °F 41% 29.91 in 10.0 mi ESE 6.9 mph - N/A   Clear
4:15 AM 53.6 °F 28.4 °F 38% 29.91 in 10.0 mi East 4.6 mph - N/A   Clear
4:35 AM 51.8 °F 30.2 °F 44% 29.91 in 10.0 mi East 6.9 mph - N/A   Clear
4:50 AM 53.6 °F 28.4 °F 38% 29.91 in 20.0 mi ESE 6.9 mph - N/A   Clear
4:55 AM 53.6 °F 30.2 °F 41% 29.91 in 10.0 mi East 8.1 mph - N/A   Clear
5:15 AM 53.6 °F 30.2 °F 41% 29.91 in 10.0 mi East 8.1 mph - N/A   Clear
5:35 AM 55.4 °F 30.2 °F 38% 29.92 in 10.0 mi East 6.9 mph - N/A   Clear
5:47 AM 55.4 °F 30.2 °F 38% 29.92 in 20.0 mi ESE 5.8 mph - N/A   Clear
6:47 AM 57.2 °F 33.8 °F 41% 29.95 in 35.0 mi SE 6.9 mph - N/A   Partly Cloudy
7:47 AM 62.6 °F 33.8 °F 34% 29.97 in 35.0 mi ESE 8.1 mph - N/A   Partly Cloudy
8:47 AM 66.2 °F 32.0 °F 28% 29.98 in 20.0 mi SSE 3.5 mph - N/A   Scattered Clouds
9:47 AM 71.6 °F 32.0 °F 23% 29.98 in 35.0 mi SSE 4.6 mph - N/A   Partly Cloudy
10:47 AM 73.4 °F 30.2 °F 20% 29.98 in 35.0 mi Calm Calm - N/A   Partly Cloudy
11:47 AM 77.0 °F 30.2 °F 18% 29.96 in 20.0 mi SW 5.8 mph - N/A   Partly Cloudy
12:47 PM 78.8 °F 28.4 °F 16% 29.93 in 35.0 mi West 8.1 mph - N/A   Partly Cloudy
1:47 PM 80.6 °F 26.6 °F 14% 29.92 in 35.0 mi WSW 10.4 mph - N/A   Clear
2:47 PM 82.4 °F 26.6 °F 13% 29.90 in 35.0 mi West 12.7 mph 25.3 mph N/A   Clear
3:47 PM 82.4 °F 24.8 °F 12% 29.87 in 35.0 mi West 12.7 mph 20.7 mph N/A   Clear
4:47 PM 84.2 °F 24.8 °F 11% 29.86 in 35.0 mi West 13.8 mph - N/A   Clear
5:49 PM 84.2 °F 24.8 °F 11% 29.84 in 35.0 mi West 9.2 mph 17.3 mph N/A   Clear
6:47 PM 84.2 °F 24.8 °F 11% 29.84 in 35.0 mi WSW 12.7 mph - N/A   Clear
7:47 PM 80.6 °F 24.8 °F 13% 29.85 in 20.0 mi WSW 9.2 mph - N/A   Clear
7:55 PM 78.8 °F 23.0 °F 13% 29.85 in 10.0 mi WSW 10.4 mph - N/A   Clear
8:15 PM 78.8 °F 26.6 °F 15% 29.86 in 10.0 mi WSW 9.2 mph - N/A   Clear
8:35 PM 75.2 °F 26.6 °F 17% 29.87 in 10.0 mi SW 8.1 mph - N/A   Clear
8:47 PM 73.4 °F 26.6 °F 18% 29.88 in 20.0 mi WSW 5.8 mph - N/A   Clear
8:55 PM 71.6 °F 26.6 °F 19% 29.88 in 10.0 mi WSW 6.9 mph - N/A   Clear
9:15 PM 71.6 °F 26.6 °F 19% 29.89 in 10.0 mi West 9.2 mph - N/A   Clear
9:35 PM 71.6 °F 26.6 °F 19% 29.89 in 10.0 mi WSW 6.9 mph - N/A   Clear
9:47 PM 71.6 °F 28.4 °F 20% 29.89 in 20.0 mi SW 6.9 mph - N/A   Clear
9:55 PM 71.6 °F 30.2 °F 22% 29.89 in 10.0 mi SW 8.1 mph - N/A   Clear
10:15 PM 71.6 °F 28.4 °F 20% 29.89 in 10.0 mi West 8.1 mph - N/A   Clear
10:35 PM 71.6 °F 23.0 °F 16% 29.90 in 10.0 mi NW 9.2 mph - N/A   Clear
10:47 PM 73.4 °F 24.8 °F 16% 29.90 in 20.0 mi WNW 6.9 mph - N/A   Clear
10:55 PM 71.6 °F 26.6 °F 19% 29.91 in 10.0 mi NW 8.1 mph - N/A   Clear
11:15 PM 71.6 °F 26.6 °F 19% 29.92 in 10.0 mi NNW 5.8 mph - N/A   Clear
11:35 PM 71.6 °F 26.6 °F 19% 29.92 in 10.0 mi NE 9.2 mph - N/A   Clear
11:47 PM 71.6 °F 28.4 °F 20% 29.93 in 20.0 mi WNW 6.9 mph - N/A   Clear
11:55 PM 69.8 °F 26.6 °F 20% 29.93 in 10.0 mi NNE 10.4 mph - N/A   Clear